STARLINK-4718, 53773

Orbit data source: Space-Track

STARLINK-4718, 53773 is a payload satellite owned by SpaceX/Seattle (US) in LEO that was launched on Sun, 11 Sep 2022 UTC via an FALCON 9 launch vehicle from the Air Force Eastern Test Range (AFETR). Payload-class satellites include a variety of spacecraft equipped with specific instruments for various scientific and technological missions. These include communications satellites like Starlink; space stations such as the ISS; scientific satellites like the Hubble; Earth observation satellites from companies like Planet Labs, Umbra, and HawkEye 360; GPS; miniature CubeSats for education and research; and military/defense satellites.

Loading next visibility...
Identifier
53773, 2022-111A
Orbit
LEO
Country
Flag of USUS
Related business
Manufacturer
SpaceX/Seattle
Mission
Operational Commercial Communications
Bus & Motor
STARLINK, Unknown motor
Mass
305 kg wet, ~290 kg dry
Launch date (UTC)
2022-09-11 (3 years ago)
Launch vehicle
FALCON 9
Launch site
Air Force Eastern Test Range (AFETR)
Object type
Payload
Rocket body
Debris
Shape & HBR
Box + 1 Pan, 4.4 m
Radar Cross Section
13.562 m², Large (>1 m²)

Expand to show TLE details & history
Last TLE update: 18 hours ago

TLE from 18 hours ago
0 STARLINK-4718
1 53773U 22111A   25260.51666720 -.00007282  00000-0 -43944-3 0  9998
2 53773  53.2197 341.4464 0001148  81.5281 278.5841 15.08877106167708
Epoch: 2025-09-17T12:24Z
TLE epoch observation values (Epoch: 2025-09-17T12:24:00.046Z)
Latitude
-0.00003°
Longitude
158.7547°
Altitude
540.409 km
Speed
7.593 km/s
True Right ascension
22h 45m 47s
True Declination
0° 00' 00"
Sunlit
Object was in full shadow at epoch
Visualization orbit readout
Latitude
Unknown
Longitude
Unknown
Altitude
Unknown
Speed
Unknown
Apparent Right ascension
Unknown
Apparent Declination
Unknown
Sunlit
N/A
Visualization observer readout
Local Sidereal Time
22:43:49
Azimuth
Unknown
Elevation
Unknown
Doppler factor
Unknown
Orbital elements
Apogee altitude
540.669 km
Perigee altitude
539.08 km
Semi-major axis
6,918.012 km
Eccentricity
0.00011
Inclination
53.2197°
RAAN
341.4464°
Arg. of periapsis
81.5281°
True anomaly
278.57109°
Mean anomaly
278.5841°
Eccentric anomaly
278.5776°
Mean motion
3.772 °/min
Orbital period
95.44 mins
BSTAR
-0.00043944
Loading maneuver chart data...
Computing Atmospheric mass density...
Loading historical data...
Loading historical data...
Loading historical data...
Loading historical data...
Loading historical data...
Loading historical data...
Loading historical data...

Documentation

Showing up to 5 results
|